Weather History for Glendive, MT

Change the Weather History Date:

Thursday, February 21, 2013

  Actual Average Record
Temperature  
Mean Temperature 21 °F -  
Max Temperature 28 °F 31 °F 51 °F (1998)
Min Temperature 14 °F 12 °F -18 °F (2011)
Degree Days  
Heating Degree Days 44    
Moisture  
Dew Point 15 °F    
Average Humidity 69    
Maximum Humidity 93    
Minimum Humidity 59    
Precipitation  
Precipitation 0.00 in - - ()
Sea Level Pressure  
Sea Level Pressure 29.97 in    
Wind  
Wind Speed 4 mph (SSE)    
Max Wind Speed 8 mph    
Max Gust Speed -    
Visibility 10 miles    
Events      
Averages and records for this station are not official NWS values.
T = Trace of Precipitation, MM = Missing Value Source: NWS Daily Summary

Daily Weather History Graph

Daily Weather History Graph

Search for Another Location

Airport:

Trip Planner

Search our weather history database for the weather conditions in past years. The results will help you decide how hot, cold, wet, or windy it might be!

Date:

Astronomy

Feb. 21, 2013 Rise Set
Actual Time 6:53 AM MST 5:33 PM MST
Civil Twilight 6:22 AM MST 6:04 PM MST
Nautical Twilight 5:46 AM MST 6:39 PM MST
Astronomical Twilight 5:11 AM MST 7:14 PM MST
Moon 1:40 PM MST (2/21) 4:10 AM MST (2/21)
Length of Visible Light 11h 41m
Length of Day
10h 39m
Waxing Gibbous, 84% of the Moon is Illuminated
Feb 21
Waxing Gibbous
Feb 25
Full
Mar 4
Last Quarter
Mar 11
New
Mar 19
First Quarter

Hourly Weather History & Observations

Time (MST) Temp. Windchill Dew Point Humidity Pressure Visibility Wind Dir Wind Speed Gust Speed Precip Events Conditions
7:35 AM 14.0 °F 6.5 °F 10.4 °F 86% 29.99 in 10.0 mi ENE 4.6 mph - N/A   Clear
7:55 AM 15.8 °F 10.2 °F 10.4 °F 79% 30.00 in 10.0 mi ENE 3.5 mph - N/A   Partly Cloudy
8:15 AM 15.8 °F - 10.4 °F 79% 30.01 in 10.0 mi Calm Calm - N/A   Partly Cloudy
8:35 AM 17.6 °F 10.7 °F 10.4 °F 73% 30.01 in 10.0 mi East 4.6 mph - N/A   Clear
8:55 AM 17.6 °F - 10.4 °F 73% 30.02 in 10.0 mi Calm Calm - N/A   Clear
9:15 AM 19.4 °F - 10.4 °F 68% 30.02 in 10.0 mi Calm Calm - N/A   Mostly Cloudy
9:35 AM 19.4 °F 14.3 °F 12.2 °F 74% 30.01 in 10.0 mi East 3.5 mph - N/A   Mostly Cloudy
9:55 AM 21.2 °F - 10.4 °F 63% 30.02 in 10.0 mi Calm Calm - N/A   Mostly Cloudy
10:15 AM 21.2 °F - 12.2 °F 68% 30.01 in 10.0 mi Calm Calm - N/A   Overcast
10:35 AM 23.0 °F - 12.2 °F 63% 30.01 in 10.0 mi Calm Calm - N/A   Overcast
11:15 AM 24.8 °F 17.9 °F 12.2 °F 59% 30.01 in 10.0 mi SSE 5.8 mph - N/A   Overcast
11:35 AM 24.8 °F 17.9 °F 14.0 °F 64% 30.01 in 10.0 mi SSE 5.8 mph - N/A   Overcast
11:55 AM 24.8 °F 20.5 °F 14.0 °F 64% 29.99 in 10.0 mi South 3.5 mph - N/A   Overcast
12:35 PM 26.6 °F 19.1 °F 15.8 °F 64% 29.99 in 10.0 mi SSE 6.9 mph - N/A   Scattered Clouds
12:55 PM 28.4 °F 21.2 °F 15.8 °F 59% 29.98 in 10.0 mi SSE 6.9 mph - N/A   Scattered Clouds
1:15 PM 28.4 °F 22.2 °F 15.8 °F 59% 29.98 in 10.0 mi SSE 5.8 mph - N/A   Mostly Cloudy
1:35 PM 28.4 °F 20.4 °F 15.8 °F 59% 29.98 in 10.0 mi SSW 8.1 mph - N/A   Overcast
1:55 PM 28.4 °F 20.4 °F 15.8 °F 59% 29.98 in 10.0 mi South 8.1 mph - N/A   Overcast
2:15 PM 28.4 °F 21.2 °F 15.8 °F 59% 29.97 in 10.0 mi SSE 6.9 mph - N/A   Overcast
2:35 PM 28.4 °F 20.4 °F 15.8 °F 59% 29.97 in 10.0 mi SSE 8.1 mph - N/A   Overcast
2:55 PM 28.4 °F 22.2 °F 15.8 °F 59% 29.96 in 10.0 mi SSE 5.8 mph - N/A   Overcast
3:15 PM 28.4 °F 23.3 °F 17.6 °F 64% 29.96 in 10.0 mi SE 4.6 mph - N/A   Overcast
3:35 PM 28.4 °F 22.2 °F 17.6 °F 64% 29.96 in 10.0 mi SSE 5.8 mph - N/A   Overcast
3:55 PM 28.4 °F 23.3 °F 15.8 °F 59% 29.96 in 10.0 mi South 4.6 mph - N/A   Overcast
4:35 PM 28.4 °F 21.2 °F 17.6 °F 64% 29.95 in 10.0 mi SSE 6.9 mph - N/A   Overcast
4:55 PM 28.4 °F 22.2 °F 15.8 °F 59% 29.95 in 10.0 mi SSE 5.8 mph - N/A   Overcast
5:15 PM 28.4 °F 23.3 °F 17.6 °F 64% 29.94 in 10.0 mi South 4.6 mph - N/A   Overcast
5:35 PM 28.4 °F 22.2 °F 17.6 °F 64% 29.94 in 10.0 mi SSW 5.8 mph - N/A   Overcast
5:55 PM 28.4 °F 23.3 °F 15.8 °F 59% 29.94 in 10.0 mi SSW 4.6 mph - N/A   Overcast
6:55 PM 26.6 °F - 17.6 °F 69% 29.94 in 10.0 mi Calm Calm - N/A   Overcast
7:15 PM 26.6 °F - 15.8 °F 64% 29.94 in 10.0 mi Calm Calm - N/A   Mostly Cloudy
7:55 PM 26.6 °F 22.6 °F 15.8 °F 64% 29.94 in 10.0 mi SSE 3.5 mph - N/A   Clear
8:15 PM 24.8 °F 19.1 °F 15.8 °F 69% 29.94 in 10.0 mi SE 4.6 mph - N/A   Scattered Clouds
8:35 PM 24.8 °F 17.9 °F 17.6 °F 74% 29.94 in 10.0 mi SSE 5.8 mph - N/A   Mostly Cloudy
8:55 PM 24.8 °F 16.9 °F 17.6 °F 74% 29.94 in 10.0 mi South 6.9 mph - N/A   Scattered Clouds
9:15 PM 24.8 °F 16.9 °F 17.6 °F 74% 29.94 in 10.0 mi South 6.9 mph - N/A   Partly Cloudy
9:35 PM 23.0 °F 17.0 °F 17.6 °F 80% 29.94 in 10.0 mi South 4.6 mph - N/A   Clear
9:55 PM 23.0 °F 15.8 °F 17.6 °F 80% 29.94 in 10.0 mi South 5.8 mph - N/A   Clear
10:15 PM 21.2 °F 14.9 °F 15.8 °F 80% 29.93 in 10.0 mi South 4.6 mph - N/A   Scattered Clouds
10:35 PM 21.2 °F 14.9 °F 15.8 °F 80% 29.93 in 10.0 mi South 4.6 mph - N/A   Scattered Clouds
10:55 PM 21.2 °F 13.6 °F 15.8 °F 80% 29.93 in 10.0 mi SSW 5.8 mph - N/A   Clear
11:15 PM 21.2 °F 12.6 °F 15.8 °F 80% 29.92 in 10.0 mi South 6.9 mph - N/A   Clear
11:55 PM 17.6 °F 7.3 °F 15.8 °F 93% 29.92 in 10.0 mi South 8.1 mph - N/A   Clear